User: anonymous   Login
Location: Unspecified
(0.0000°N, 0.0000°E)
Time: 02:41:21
(UTC+00:00)
Language:

STPSAT 2 (USA 217) - Orbit

View from above orbital plane
View from above orbital plane
View from above satellite
View from above satellite

Ground track
Ground track

The orbit data is extracted from the following two-line orbital elements,

1 37222U 10062A   17202.04990896 0.00000120  00000-0  16488-4 0    09
2 37222  71.9561 166.1403 0006000  79.1015 280.8984 14.78296013    07
Epoch (UTC): 21 July 2017 01:11:52
Eccentricity: 0.0006000
inclination: 71.9561°
perigee height: 630 km
apogee height: 639 km
right ascension of ascending node: 166.1403°
argument of perigee: 79.1015°
revolutions per day: 14.78296013
mean anomaly at epoch: 280.8984°
orbit number at epoch: 0

The dashed part of the orbit path shows where the satellite is in the earth's shadow,  

DLR